| time (UTC) | temp F | wind direction | speed knots | gust knots | rain 1hr in | rain 24hr in | rain mn in | humidity % | barometer mb |
| 20260504045503 | 46 | 234 | 2.6 | 6.1 | 0.00 | 0.00 | 0.00 | 57 | 1011.5 |
| 20260504045003 | 45 | 232 | 2.6 | 5.2 | 0.00 | 0.00 | 0.00 | 58 | 1011.5 |
| 20260504044504 | 45 | 231 | 1.7 | 3.5 | 0.00 | 0.00 | 0.00 | 59 | 1011.4 |
| 20260504044003 | 45 | 229 | 1.7 | 3.5 | 0.00 | 0.00 | 0.00 | 59 | 1011.5 |
| 20260504043504 | 44 | 226 | 1.7 | 3.5 | 0.00 | 0.00 | 0.00 | 60 | 1011.4 |
| 20260504043004 | 44 | 225 | 1.7 | 3.5 | 0.00 | 0.00 | 0.00 | 61 | 1011.3 |
| 20260504042504 | 44 | 230 | 1.7 | 3.5 | 0.00 | 0.00 | 0.00 | 61 | 1011.4 |
| 20260504042003 | 43 | 235 | 1.7 | 2.6 | 0.00 | 0.00 | 0.00 | 61 | 1011.2 |
| 20260504041503 | 43 | 235 | 1.7 | 3.5 | 0.00 | 0.00 | 0.00 | 62 | 1011.1 |
| 20260504041003 | 43 | 235 | 0.9 | 3.5 | 0.00 | 0.00 | 0.00 | 62 | 1011.3 |
| 20260504040503 | 42 | 233 | 0.9 | 2.6 | 0.00 | 0.00 | 0.00 | 61 | 1011.0 |
| 20260504040003 | 42 | 234 | 0.9 | 2.6 | 0.00 | 0.00 | 0.00 | 61 | 1011.4 |
| 20260504035503 | 42 | 235 | 0.9 | 1.7 | 0.00 | 0.00 | 0.00 | 61 | 1011.1 |
| 20260504035003 | 42 | 235 | 0.9 | 1.7 | 0.00 | 0.00 | 0.00 | 61 | 1011.2 |
| 20260504034504 | 42 | 235 | 0.0 | 1.7 | 0.00 | 0.00 | 0.00 | 60 | 1011.1 |
| 20260504034024 | 43 | 235 | 0.0 | 1.7 | 0.00 | 0.00 | 0.00 | 60 | 1011.1 |
| 20260504033503 | 43 | 235 | 0.0 | 1.7 | 0.00 | 0.00 | 0.00 | 59 | 1011.0 |
| 20260504033025 | 43 | 236 | 0.0 | 0.9 | 0.00 | 0.00 | 0.00 | 59 | 1011.1 |
| 20260504032504 | 43 | 236 | 0.0 | 0.9 | 0.00 | 0.00 | 0.00 | 60 | 1011.2 |
| 20260504032003 | 43 | 236 | 0.0 | 0.9 | 0.00 | 0.00 | 0.00 | 59 | 1011.2 |
| 20260504031503 | 43 | 236 | 0.0 | 1.7 | 0.00 | 0.00 | 0.00 | 59 | 1011.1 |
| 20260504031004 | 43 | 236 | 0.0 | 1.7 | 0.00 | 0.00 | 0.00 | 59 | 1011.1 |
| 20260504030524 | 43 | 0 | 0.0 | 0.0 | 0.00 | 0.00 | 0.00 | 58 | 1011.1 |
| 20260504030003 | 44 | 0 | 0.0 | 0.0 | 0.00 | 0.00 | 0.00 | 58 | 1011.4 |
| 20260504025504 | 44 | 0 | 0.0 | 0.0 | 0.00 | 0.00 | 0.00 | 57 | 1011.2 |
| 20260504025024 | 44 | 0 | 0.0 | 0.0 | 0.00 | 0.00 | 0.00 | 56 | 1011.2 |
| 20260504024503 | 44 | 236 | 0.0 | 0.9 | 0.00 | 0.00 | 0.00 | 56 | 1010.9 |
| 20260504024003 | 44 | 238 | 0.0 | 0.9 | 0.00 | 0.00 | 0.00 | 55 | 1011.0 |
| 20260504023503 | 45 | 239 | 0.0 | 0.9 | 0.00 | 0.00 | 0.00 | 53 | 1011.2 |
| 20260504023003 | 45 | 0 | 0.0 | 0.0 | 0.00 | 0.00 | 0.00 | 53 | 1011.2 |
| 20260504022524 | 45 | 0 | 0.0 | 0.0 | 0.00 | 0.00 | 0.00 | 52 | 1011.2 |
| 20260504022024 | 46 | 0 | 0.0 | 0.0 | 0.00 | 0.00 | 0.00 | 51 | 1011.3 |
| 20260504021503 | 46 | 0 | 0.0 | 0.0 | 0.00 | 0.00 | 0.00 | 50 | 1011.2 |
| 20260504021003 | 46 | 0 | 0.0 | 0.0 | 0.00 | 0.00 | 0.00 | 50 | 1011.1 |
| 20260504020524 | 47 | 0 | 0.0 | 0.0 | 0.00 | 0.00 | 0.00 | 49 | 1011.1 |
| 20260504020004 | 47 | 0 | 0.0 | 0.0 | 0.00 | 0.00 | 0.00 | 48 | 1011.2 |
| 20260504015504 | 48 | 0 | 0.0 | 0.0 | 0.00 | 0.00 | 0.00 | 47 | 1011.1 |
| 20260504015004 | 48 | 0 | 0.0 | 0.0 | 0.00 | 0.00 | 0.00 | 46 | 1011.0 |
| 20260504014504 | 49 | 0 | 0.0 | 0.0 | 0.00 | 0.00 | 0.00 | 46 | 1010.9 |
| 20260504014003 | 49 | 0 | 0.0 | 0.0 | 0.00 | 0.00 | 0.00 | 45 | 1011.1 |
| 20260504013503 | 50 | 0 | 0.0 | 0.0 | 0.00 | 0.00 | 0.00 | 44 | 1011.0 |
| 20260504013004 | 51 | 0 | 0.0 | 0.0 | 0.00 | 0.00 | 0.00 | 43 | 1010.8 |
| 20260504012503 | 51 | 0 | 0.0 | 0.0 | 0.00 | 0.00 | 0.00 | 42 | 1010.9 |
| 20260504012024 | 52 | 0 | 0.0 | 0.0 | 0.00 | 0.00 | 0.00 | 42 | 1010.9 |
| 20260504011504 | 52 | 239 | 0.0 | 0.9 | 0.00 | 0.00 | 0.00 | 41 | 1010.8 |
| 20260504011003 | 53 | 239 | 0.0 | 0.9 | 0.00 | 0.00 | 0.00 | 40 | 1010.8 |
| 20260504010503 | 53 | 239 | 0.0 | 0.9 | 0.00 | 0.00 | 0.00 | 39 | 1010.5 |
| 20260504010004 | 54 | 238 | 0.0 | 0.9 | 0.00 | 0.00 | 0.00 | 39 | 1010.7 |
| 20260504005504 | 54 | 238 | 0.0 | 1.7 | 0.00 | 0.00 | 0.00 | 38 | 1010.6 |
| 20260504005003 | 55 | 241 | 0.9 | 1.7 | 0.00 | 0.00 | 0.00 | 38 | 1010.5 |
| 20260504004504 | 55 | 250 | 0.9 | 3.5 | 0.00 | 0.00 | 0.00 | 37 | 1010.4 |
| 20260504004024 | 56 | 258 | 0.9 | 3.5 | 0.00 | 0.00 | 0.00 | 36 | 1010.5 |
| 20260504003503 | 56 | 260 | 0.9 | 6.1 | 0.00 | 0.00 | 0.00 | 36 | 1010.3 |
| 20260504003004 | 56 | 257 | 1.7 | 6.1 | 0.00 | 0.00 | 0.00 | 35 | 1010.3 |
| 20260504002525 | 56 | 257 | 0.9 | 3.5 | 0.00 | 0.00 | 0.00 | 35 | 1010.3 |
| 20260504002003 | 57 | 286 | 0.9 | 2.6 | 0.00 | 0.00 | 0.00 | 34 | 1010.1 |
| 20260504001503 | 57 | 298 | 0.9 | 2.6 | 0.00 | 0.00 | 0.00 | 34 | 1009.9 |
| 20260504001003 | 58 | 275 | 1.7 | 6.1 | 0.00 | 0.00 | 0.00 | 34 | 1009.9 |
| 20260504000503 | 58 | 262 | 1.7 | 6.1 | 0.00 | 0.00 | 0.00 | 33 | 1010.0 |
| 20260504000025 | 58 | 260 | 1.7 | 7.0 | 0.00 | 0.00 | 0.00 | 33 | 1009.8 |
| 20260503235504 | 58 | 265 | 2.6 | 7.8 | 0.00 | 0.00 | 0.00 | 32 | 1009.8 |
| 20260503235003 | 59 | 268 | 3.5 | 9.6 | 0.00 | 0.00 | 0.00 | 32 | 1009.7 |
| 20260503234503 | 59 | 270 | 3.5 | 9.6 | 0.00 | 0.00 | 0.00 | 31 | 1009.6 |
| 20260503234004 | 59 | 272 | 2.6 | 6.1 | 0.00 | 0.00 | 0.00 | 31 | 1009.9 |
| 20260503233503 | 59 | 263 | 2.6 | 7.8 | 0.00 | 0.00 | 0.00 | 32 | 1009.8 |
| 20260503233003 | 59 | 261 | 3.5 | 8.7 | 0.00 | 0.00 | 0.00 | 30 | 1009.3 |
| 20260503232525 | 59 | 266 | 3.5 | 8.7 | 0.00 | 0.00 | 0.00 | 30 | 1009.3 |
| 20260503232003 | 59 | 283 | 2.6 | 7.0 | 0.00 | 0.00 | 0.00 | 31 | 1009.2 |
| 20260503231504 | 59 | 281 | 2.6 | 7.8 | 0.00 | 0.00 | 0.00 | 29 | 1009.1 |
| 20260503231004 | 60 | 277 | 2.6 | 7.8 | 0.00 | 0.00 | 0.00 | 30 | 1009.1 |
| 20260503230503 | 60 | 296 | 3.5 | 12.2 | 0.00 | 0.00 | 0.00 | 30 | 1009.3 |
| 20260503230004 | 60 | 295 | 5.2 | 13.0 | 0.00 | 0.00 | 0.00 | 29 | 1009.3 |
| 20260503225504 | 60 | 277 | 5.2 | 13.0 | 0.00 | 0.00 | 0.00 | 29 | 1009.4 |
| 20260503225004 | 61 | 275 | 5.2 | 13.9 | 0.00 | 0.00 | 0.00 | 28 | 1009.1 |
| 20260503224503 | 61 | 288 | 6.1 | 13.9 | 0.00 | 0.00 | 0.00 | 28 | 1009.3 |
| 20260503224004 | 61 | 293 | 5.2 | 13.9 | 0.00 | 0.00 | 0.00 | 28 | 1008.9 |
| 20260503223503 | 61 | 290 | 4.3 | 13.9 | 0.00 | 0.00 | 0.00 | 27 | 1009.1 |
| 20260503223003 | 61 | 273 | 5.2 | 18.2 | 0.00 | 0.00 | 0.00 | 27 | 1009.2 |
| 20260503222524 | 61 | 262 | 6.1 | 18.2 | 0.00 | 0.00 | 0.00 | 27 | 1009.0 |
| 20260503222004 | 61 | 272 | 6.1 | 13.9 | 0.00 | 0.00 | 0.00 | 27 | 1009.1 |
| 20260503221503 | 61 | 281 | 6.1 | 15.6 | 0.00 | 0.00 | 0.00 | 27 | 1009.4 |
| 20260503221004 | 61 | 281 | 5.2 | 15.6 | 0.00 | 0.00 | 0.00 | 28 | 1009.2 |
| 20260503220503 | 61 | 279 | 5.2 | 16.5 | 0.00 | 0.00 | 0.00 | 27 | 1009.1 |
| 20260503220003 | 61 | 269 | 7.0 | 16.5 | 0.00 | 0.00 | 0.00 | 28 | 1009.0 |
| 20260503215503 | 61 | 265 | 7.0 | 20.9 | 0.00 | 0.00 | 0.00 | 27 | 1009.1 |
| 20260503215024 | 61 | 265 | 7.0 | 20.9 | 0.00 | 0.00 | 0.00 | 27 | 1009.3 |
| 20260503214504 | 61 | 266 | 7.0 | 16.5 | 0.00 | 0.00 | 0.00 | 27 | 1009.2 |
| 20260503214004 | 61 | 278 | 5.2 | 14.8 | 0.00 | 0.00 | 0.00 | 28 | 1009.1 |
| 20260503213503 | 61 | 282 | 4.3 | 12.2 | 0.00 | 0.00 | 0.00 | 27 | 1009.2 |
| 20260503213004 | 61 | 277 | 5.2 | 13.9 | 0.00 | 0.00 | 0.00 | 27 | 1009.0 |
| 20260503212504 | 61 | 294 | 6.1 | 14.8 | 0.00 | 0.00 | 0.00 | 27 | 1009.3 |
| 20260503212004 | 61 | 281 | 5.2 | 14.8 | 0.00 | 0.00 | 0.00 | 28 | 1009.1 |
| 20260503211503 | 61 | 261 | 6.1 | 16.5 | 0.00 | 0.00 | 0.00 | 28 | 1009.0 |
| 20260503211024 | 61 | 259 | 7.8 | 19.1 | 0.00 | 0.00 | 0.00 | 29 | 1009.2 |
| 20260503210504 | 61 | 258 | 7.8 | 20.0 | 0.00 | 0.00 | 0.00 | 27 | 1009.0 |
| 20260503210003 | 61 | 254 | 7.8 | 20.0 | 0.00 | 0.00 | 0.00 | 27 | 1008.9 |
| 20260503205503 | 61 | 275 | 7.8 | 22.6 | 0.00 | 0.00 | 0.00 | 28 | 1009.0 |
| 20260503205003 | 60 | 281 | 7.0 | 22.6 | 0.00 | 0.00 | 0.00 | 28 | 1008.8 |
| 20260503204504 | 60 | 269 | 7.0 | 15.6 | 0.00 | 0.00 | 0.00 | 29 | 1009.2 |
| 20260503204025 | 60 | 267 | 7.0 | 15.6 | 0.00 | 0.00 | 0.00 | 28 | 1009.3 |
| 20260503203504 | 60 | 259 | 7.8 | 19.1 | 0.00 | 0.00 | 0.00 | 29 | 1009.3 |
| 20260503203003 | 60 | 261 | 8.7 | 22.6 | 0.00 | 0.00 | 0.00 | 30 | 1009.0 |
| 20260503202504 | 60 | 271 | 7.0 | 22.6 | 0.00 | 0.00 | 0.00 | 29 | 1009.3 |
| 20260503202003 | 60 | 277 | 4.3 | 16.5 | 0.00 | 0.00 | 0.00 | 29 | 1009.0 |
| 20260503201504 | 60 | 282 | 6.1 | 21.7 | 0.00 | 0.00 | 0.00 | 29 | 1009.2 |
| 20260503201003 | 59 | 270 | 7.0 | 21.7 | 0.00 | 0.00 | 0.00 | 29 | 1009.2 |
| 20260503200504 | 59 | 259 | 7.8 | 18.2 | 0.00 | 0.00 | 0.00 | 31 | 1009.4 |
| 20260503200004 | 59 | 266 | 8.7 | 16.5 | 0.00 | 0.00 | 0.00 | 30 | 1009.1 |
| 20260503195504 | 59 | 278 | 7.0 | 16.5 | 0.00 | 0.00 | 0.00 | 29 | 1009.4 |
| 20260503195003 | 59 | 293 | 6.1 | 15.6 | 0.00 | 0.00 | 0.00 | 29 | 1009.3 |
| 20260503194504 | 59 | 291 | 6.1 | 16.5 | 0.00 | 0.00 | 0.00 | 31 | 1009.4 |
| 20260503194003 | 59 | 267 | 6.1 | 16.5 | 0.00 | 0.00 | 0.00 | 30 | 1009.3 |
| 20260503193524 | 59 | 247 | 7.0 | 18.2 | 0.00 | 0.00 | 0.00 | 33 | 1009.5 |
| 20260503193003 | 59 | 260 | 7.0 | 21.7 | 0.00 | 0.00 | 0.00 | 31 | 1009.6 |
| 20260503192503 | 58 | 272 | 7.0 | 21.7 | 0.00 | 0.00 | 0.00 | 31 | 1009.5 |
| 20260503192004 | 58 | 262 | 6.1 | 15.6 | 0.00 | 0.00 | 0.00 | 32 | 1009.7 |
| 20260503191504 | 58 | 270 | 6.1 | 14.8 | 0.00 | 0.00 | 0.00 | 32 | 1009.7 |
| 20260503191003 | 58 | 303 | 7.0 | 18.2 | 0.00 | 0.00 | 0.00 | 31 | 1009.7 |
| 20260503190503 | 58 | 304 | 6.1 | 18.2 | 0.00 | 0.00 | 0.00 | 33 | 1009.9 |
| 20260503190004 | 58 | 276 | 6.1 | 28.7 | 0.00 | 0.00 | 0.00 | 31 | 1009.9 |
| 20260503185504 | 58 | 260 | 7.8 | 28.7 | 0.00 | 0.00 | 0.00 | 32 | 1010.0 |
| 20260503185004 | 58 | 261 | 7.0 | 19.1 | 0.00 | 0.00 | 0.00 | 33 | 1009.8 |
| 20260503184503 | 58 | 269 | 7.0 | 19.1 | 0.00 | 0.00 | 0.00 | 33 | 1010.0 |
| 20260503184003 | 58 | 263 | 7.0 | 19.1 | 0.00 | 0.00 | 0.00 | 35 | 1009.9 |
| 20260503183503 | 58 | 269 | 6.1 | 19.1 | 0.00 | 0.00 | 0.00 | 35 | 1009.8 |
| 20260503183003 | 57 | 281 | 5.2 | 19.1 | 0.00 | 0.00 | 0.00 | 37 | 1009.9 |
| 20260503182503 | 57 | 262 | 7.0 | 20.0 | 0.00 | 0.00 | 0.00 | 34 | 1010.0 |
| 20260503182005 | 57 | 258 | 7.0 | 20.0 | 0.00 | 0.00 | 0.00 | 36 | 1010.1 |
| 20260503181505 | 56 | 264 | 6.1 | 20.0 | 0.00 | 0.00 | 0.00 | 36 | 1010.2 |
| 20260503181003 | 56 | 266 | 6.1 | 20.0 | 0.00 | 0.00 | 0.00 | 36 | 1010.3 |
| 20260503180503 | 56 | 288 | 5.2 | 13.9 | 0.00 | 0.00 | 0.00 | 37 | 1010.4 |
| 20260503180004 | 56 | 294 | 5.2 | 13.9 | 0.00 | 0.00 | 0.00 | 38 | 1010.0 |
| 20260503175504 | 55 | 296 | 6.1 | 13.9 | 0.00 | 0.00 | 0.00 | 39 | 1010.4 |
| 20260503175004 | 55 | 286 | 6.1 | 13.9 | 0.00 | 0.00 | 0.00 | 39 | 1010.3 |
| 20260503174503 | 55 | 273 | 5.2 | 13.9 | 0.00 | 0.00 | 0.00 | 38 | 1010.3 |
| 20260503174003 | 54 | 278 | 7.0 | 19.1 | 0.00 | 0.00 | 0.00 | 38 | 1010.3 |
| 20260503173504 | 54 | 271 | 7.8 | 20.9 | 0.00 | 0.00 | 0.00 | 38 | 1010.4 |
| 20260503173003 | 54 | 261 | 7.8 | 20.9 | 0.00 | 0.00 | 0.00 | 38 | 1010.3 |
| 20260503172503 | 54 | 275 | 7.0 | 13.0 | 0.00 | 0.00 | 0.00 | 37 | 1010.4 |
| 20260503172004 | 54 | 280 | 7.0 | 16.5 | 0.00 | 0.00 | 0.00 | 42 | 1010.3 |
| 20260503171503 | 54 | 263 | 7.8 | 16.5 | 0.00 | 0.00 | 0.00 | 40 | 1010.5 |
| 20260503171003 | 54 | 271 | 7.8 | 20.0 | 0.00 | 0.00 | 0.00 | 38 | 1010.5 |
| 20260503170503 | 54 | 291 | 7.8 | 20.9 | 0.00 | 0.00 | 0.00 | 36 | 1010.6 |
| 20260503151003 | 52 | 288 | 4.3 | 11.3 | 0.00 | 0.00 | 0.00 | 38 | 1010.7 |
| 20260503150503 | 52 | 292 | 4.3 | 12.2 | 0.00 | 0.00 | 0.00 | 36 | 1010.7 |
| 20260503131003 | 50 | 314 | 4.3 | 13.0 | 0.00 | 0.00 | 0.00 | 51 | 1010.8 |
| 20260503130504 | 50 | 314 | 5.2 | 13.0 | 0.00 | 0.00 | 0.00 | 50 | 1011.0 |
| 20260503110503 | 44 | 310 | 3.5 | 9.6 | 0.00 | 0.00 | 0.00 | 59 | 1010.8 |
| 20260503090503 | 45 | 320 | 3.5 | 9.6 | 0.00 | 0.01 | 0.00 | 54 | 1009.6 |
| 20260503081503 | 44 | 335 | 2.6 | 11.3 | 0.00 | 0.01 | 0.00 | 59 | 1009.6 |
| 20260503081003 | 44 | 324 | 1.7 | 6.1 | 0.00 | 0.01 | 0.00 | 59 | 1009.6 |
| 20260503080524 | 44 | 327 | 1.7 | 5.2 | 0.00 | 0.01 | 0.00 | 58 | 1009.4 |
| 20260503072503 | 45 | 343 | 1.7 | 3.5 | 0.00 | 0.01 | 0.00 | 54 | 1009.6 |
| 20260503072003 | 46 | 341 | 1.7 | 3.5 | 0.00 | 0.01 | 0.00 | 53 | 1009.5 |
| 20260503071503 | 46 | 345 | 1.7 | 3.5 | 0.00 | 0.01 | 0.00 | 53 | 1009.3 |
| 20260503071003 | 46 | 348 | 1.7 | 3.5 | 0.00 | 0.01 | 0.00 | 53 | 1009.5 |
| 20260503070504 | 46 | 339 | 1.7 | 5.2 | 0.00 | 0.01 | 0.00 | 52 | 1009.5 |
| 20260503055003 | 49 | 333 | 2.6 | 7.0 | 0.00 | 0.01 | 0.00 | 46 | 1009.8 |
| 20260503054503 | 49 | 333 | 2.6 | 7.0 | 0.00 | 0.01 | 0.00 | 46 | 1009.8 |
| 20260503054004 | 49 | 332 | 2.6 | 7.8 | 0.00 | 0.01 | 0.00 | 46 | 1009.7 |
| 20260503053503 | 49 | 327 | 2.6 | 7.8 | 0.00 | 0.01 | 0.00 | 45 | 1009.7 |
| 20260503053024 | 49 | 329 | 2.6 | 6.1 | 0.00 | 0.01 | 0.00 | 45 | 1009.9 |
| 20260503052525 | 50 | 322 | 2.6 | 6.1 | 0.00 | 0.01 | 0.00 | 45 | 1010.1 |
| 20260503052003 | 50 | 323 | 2.6 | 6.1 | 0.00 | 0.01 | 0.00 | 44 | 1010.2 |
| 20260503051504 | 50 | 328 | 2.6 | 6.1 | 0.00 | 0.01 | 0.00 | 44 | 1009.9 |
| 20260503051003 | 50 | 331 | 1.7 | 6.1 | 0.00 | 0.01 | 0.00 | 44 | 1010.1 |
| 20260503050504 | 50 | 329 | 2.6 | 7.0 | 0.00 | 0.01 | 0.00 | 44 | 1010.3 |
| 20260503050024 | 50 | 331 | 3.5 | 7.0 | 0.00 | 0.01 | 0.00 | 43 | 1010.1 |